Location: Hains Lake
(37.8540°N, 99.8578°W)
Time: 20:51:21
(UTC+00:00)

deb Explorer IX - Pass Details

Date: 21 April 2021
Orbit: 541 x 1098 km, 38.8° (Epoch: 13 May)

Event Time Altitude Azimuth Distance (km) Brightness Sun altitude
Rises 19:19:36 0° 274° (W) 3,203 ? 62.7°
Reaches altitude 10° 19:22:45 10° 254° (WSW) 2,387 ? 62.4°
Maximum altitude 19:26:20 17° 215° (SW) 2,043 ? 62.1°
Drops below altitude 10° 19:30:14 10° 176° (S) 2,630 ? 61.8°
Sets 19:33:57 0° 158° (SSE) 3,680 ? 61.4°
